Regional Weather Roundup
Issued by NWS

Home | Current Version | Previous Version | Text Only | Print | Product List | Glossary Off
Versions: 1 2 3 4 5 6 7 8 9 10 11 12 13 14 15 16 17 18 19 20 21 22 23 24 25 26 27 28 29 30 31 32 33 34 35 36 37 38 39 40 41 42 43 44 45 46 47 48 49 50

000
ASUS43 KLMK 301302
RWRKY
KENTUCKY REGIONAL WEATHER ROUNDUP
NATIONAL WEATHER SERVICE LOUISVILLE KY
900 AM EDT SAT MAY 30 2015

NOTE "FAIR" INDICATES FEW OR NO CLOUDS BELOW 12,000 FEET
WITH NO SIGNIFICANT WEATHER AND/OR OBSTRUCTIONS TO VISIBILITY.

KYZ001>023-026-027-061>063-070>075-301400-
WESTERN AND SOUTH CENTRAL KENTUCKY

CITY           SKY/WX    TMP DP  RH WIND       PRES   REMARKS
PADUCAH        MOSUNNY   75  67  76 S12G20    29.99R
HENDERSON      MOSUNNY   75  66  73 S14       29.99S
OWENSBORO      MOSUNNY   76  68  76 S14       30.03S
HOPKINSVILLE   SUNNY     74  67  77 S9        30.04R
BOWLING GREEN  SUNNY     76  65  68 S10       30.07S
GLASGOW        NOT AVBL
$$

KYZ024-025-028>034-038-045-046-053-301400-
NORTH CENTRAL KENTUCKY

CITY           SKY/WX    TMP DP  RH WIND       PRES   REMARKS
LOUISVILLE/SDF MOSUNNY   76  65  68 S9        30.07S
LOUISVILLE/LOU SUNNY     74  65  73 S6        30.08S
FORT KNOX      SUNNY     74  66  75 S9        30.06S
$$

KYZ035>037-039>044-047>052-055>060-089>105-301400-
NORTHEAST KENTUCKY

CITY           SKY/WX    TMP DP  RH WIND       PRES   REMARKS
LEXINGTON      MOSUNNY   72  66  81 S9        30.12R
COVINGTON      MOSUNNY   74  66  76 S12       30.09S
FRANKFORT      CLOUDY    73  64  73 S8        30.09S
$$

KYZ054-064>069-076>088-106>120-301400-
SOUTHEAST KENTUCKY

CITY           SKY/WX    TMP DP  RH WIND       PRES   REMARKS
JACKSON        PTSUNNY   70  63  78 CALM      30.18R
LONDON         LGT RAIN  70  64  81 SE6       30.17R
SOMERSET       NOT AVBL
MIDDLESBORO    CLOUDY    74  66  76 SE3       30.20S
MONTICELLO     PTSUNNY   74  66  75 S8        30.17R
$$



USA.gov is the U.S. government's official web portal to all federal, state and local government web resources and services.